Вернуться в каталог

HULIANWANG DIGUI-173

АктивенНаукаLEO
NORAD 69576·PAYLOAD·🇨🇳 China

Запущен Jun 17, 2026 с Wenchang Space Launch Site

Loading…

Ближайшие Пролёты (ближайшие 24 часа)

TLE

СвежийSource: Space-Track

Эпоха: Sep 14, 2026, 17:52 UTC

1 69576U 26137E   26257.74481473 -.00000096  00000-0  60793-4 0  9997
2 69576  50.0021 274.6671 0000199 331.6875  28.3986 13.29326087 12244

Отслеживайте HULIANWANG DIGUI-173 в реальном времени с AllMySat

Download on the App Store